Content
SEND FEEDBACK

Daily
Averages
Monthly
Summary
United Kingdom

COLTISHALL, ENGLAND


Home > Europe > United Kingdom > England
Elevation: 61 feet     Latitude: 52 45N     Longitude: 001 21E

WEATHER
 
SELECT A DAY
Number of Records: 213,693;   Date Range: 7/1/96 - 10/23/14
 
SHARE

PRINT THIS DATA

[ ← Previous Day ]
WEATHER ALMANAC - JANUARY 31, 2013
[ Next Day → ]
[ °C ]   °F
Weather ElementAverageHighLow
Temperature45 °F48.2 °F (10:50 am)41 °F (12:50 am)
Dewpoint36.3 °F41 °F (6:50 am)32 °F (3:20 pm)
Humidity72.2 %87 % (5:50 am)54 % (3:20 pm)
Barometer29.76 in29.92 in (12:50 am)29.68 in (7:20 am)
Wind Speed19.8 mph33.4 mph (1:50 pm)
Wind Gust46 mph (2:20 pm)
Weather ElementAverage
Visibility6.2 mi
Wind DirectionWSW (239.8 °)

Weather ElementTotal
Precipitation---
Heating Degree Days20.4 (Base 65)
Averaged from 46 records on January 31, 2013
WEATHER CONDITIONS BREAKOUT
WIND DIRECTION BREAKOUT
WEATHER BY HOUR - JANUARY 31, 2013
[ °C ]   °F
Local TimeTemperatureDewpointHumidityBarometerVisibilityWind DirectionWind SpeedGust SpeedPrecipitationEventsConditions
12:50 AM41.0 °F35.6 °F81 %29.92 in6.2 miWSW (240°)18.4 mph
1:20 AM42.8 °F35.6 °F76 %29.92 in6.2 miWSW (240°)17.3 mph
1:50 AM41.0 °F35.6 °F81 %29.92 in6.2 miWSW (240°)17.3 mph
2:20 AM42.8 °F35.6 °F76 %29.89 in6.2 miSW (230°)12.7 mph
2:50 AM42.8 °F37.4 °F81 %29.89 in6.2 miSW (220°)10.4 mph
3:20 AM42.8 °F37.4 °F81 %29.86 in6.2 miSW (220°)13.8 mph
3:50 AM42.8 °F37.4 °F81 %29.83 in6.2 miSW (220°)13.8 mph
4:20 AM42.8 °F37.4 °F81 %29.83 in6.2 miSSW (210°)12.7 mph
4:50 AM42.8 °F37.4 °F81 %29.80 in6.2 miSSW (210°)15.0 mph
5:20 AM42.8 °F37.4 °F81 %29.77 in6.2 miSSW (210°)15.0 mph
5:50 AM42.8 °F39.2 °F87 %29.74 in6.2 miSSW (200°)13.8 mphRainRain
6:20 AM44.6 °F39.2 °F81 %29.71 in6.2 miSSW (210°)13.8 mphRainLight Rain
6:50 AM44.6 °F41.0 °F87 %29.71 in5.6 miSSW (210°)15.0 mphRainLight Rain
7:20 AM46.4 °F39.2 °F76 %29.68 in6.2 miSW (220°)20.7 mph33.4 mphRainLight Rain
7:50 AM44.6 °F37.4 °F76 %29.68 in6.2 miWSW (240°)23.0 mphRainLight Rain
8:20 AM44.6 °F37.4 °F76 %29.68 in6.2 miWSW (240°)20.7 mphScattered Clouds
8:50 AM46.4 °F39.2 °F76 %29.68 in6.2 miWSW (240°)23.0 mphScattered Clouds
9:20 AM46.4 °F37.4 °F71 %29.68 in6.2 miWSW (240°)20.7 mphPartly Cloudy
10:20 AM46.4 °F39.2 °F76 %29.68 in6.2 miWSW (250°)23.0 mphPartly Cloudy
10:50 AM48.2 °F39.2 °F71 %29.68 in6.2 miWSW (250°)20.7 mphScattered Clouds
11:20 AM48.2 °F37.4 °F66 %29.68 in6.2 miWest (260°)24.2 mph36.8 mphPartly Cloudy
11:50 AM48.2 °F37.4 °F66 %29.68 in6.2 miWest (260°)28.8 mph43.7 mphScattered Clouds
12:20 PM48.2 °F37.4 °F66 %29.68 in6.2 miWest (260°)26.5 mph40.3 mphScattered Clouds
12:50 PM48.2 °F35.6 °F62 %29.68 in6.2 miWest (260°)28.8 mph40.3 mphScattered Clouds
1:20 PM48.2 °F33.8 °F58 %29.71 in6.2 miWest (260°)27.6 mph43.7 mphScattered Clouds
1:50 PM48.2 °F33.8 °F58 %29.71 in6.2 miWest (260°)33.4 mph44.9 mphScattered Clouds
2:20 PM48.2 °F33.8 °F58 %29.71 in6.2 miWest (260°)25.3 mph46.0 mphMostly Cloudy
2:50 PM48.2 °F33.8 °F58 %29.71 in6.2 miWest (260°)26.5 mph39.1 mphPartly Cloudy
3:20 PM48.2 °F32.0 °F54 %29.71 in6.2 miWest (260°)26.5 mph38.0 mphPartly Cloudy
3:50 PM46.4 °F32.0 °F57 %29.74 inWest (260°)24.2 mph35.7 mphClear
4:20 PM46.4 °F32.0 °F57 %29.74 inWest (260°)21.9 mphClear
4:50 PM44.6 °F33.8 °F66 %29.74 inWSW (250°)21.9 mph33.4 mphClear
5:20 PM44.6 °F33.8 °F66 %29.74 inWSW (250°)20.7 mphClear
5:50 PM44.6 °F33.8 °F66 %29.77 inWSW (250°)21.9 mphClear
6:20 PM44.6 °F33.8 °F66 %29.77 inWSW (240°)20.7 mphClear
6:50 PM44.6 °F33.8 °F66 %29.77 inWSW (250°)17.3 mphClear
7:20 PM44.6 °F35.6 °F71 %29.77 inWSW (240°)18.4 mph29.9 mphClear
7:50 PM44.6 °F35.6 °F71 %29.77 inWSW (240°)19.6 mphClear
8:20 PM44.6 °F35.6 °F71 %29.77 inWSW (240°)17.3 mphClear
8:50 PM44.6 °F35.6 °F71 %29.77 inWSW (240°)19.6 mphClear
9:20 PM42.8 °F35.6 °F76 %29.77 inWSW (240°)19.6 mphClear
9:50 PM44.6 °F37.4 °F76 %29.77 inWSW (240°)19.6 mphClear
10:20 PM44.6 °F37.4 °F76 %29.77 in6.2 miWSW (240°)19.6 mph
10:50 PM42.8 °F37.4 °F81 %29.77 in6.2 miWSW (240°)13.8 mph
11:20 PM42.8 °F37.4 °F81 %29.77 in6.2 miSW (230°)13.8 mph
11:50 PM42.8 °F37.4 °F81 %29.77 in6.2 miWSW (240°)13.8 mph
Hourly data recorded from EGSH, located miles away from Coltishall, England







STORIES FROM OUR PARTNERS